Regional Weather Roundup
Issued by NWS

Home | Current Version | Previous Version | Graphics & Text | Print | Product List | Glossary On
Versions: 1 2 3 4 5 6 7 8 9 10 11 12 13 14 15 16 17 18 19 20 21 22 23 24 25 26 27 28 29 30 31 32 33 34 35 36 37 38 39 40 41 42 43 44 45 46 47 48 49 50
000
ASUS45 KBOU 281207
RWRCO

WEATHER ROUNDUP FOR COLORADO
NATIONAL WEATHER SERVICE DENVER/BOULDER CO
600 AM MDT SAT MAR 28 2015

NOTE: "FAIR" INDICATES FEW OR NO CLOUDS BELOW 12000 FEET WITH NO
SIGNIFICANT WEATHER AND/OR OBSTRUCTIONS TO VISIBILITY.

COZ001>005-013-030-031-281300-
...NORTHWEST COLORADO...

CITY           SKY/WX    TMP DP  RH WIND       PRES   REMARKS
CRAIG          PTCLDY    27  23  85 CALM      30.22R
HAYDEN         PTCLDY    36  27  69 E10       30.22R
MEEKER         CLEAR     35  26  69 CALM      30.23S
MOUNT WERNER   NOT AVBL
STEAMBOAT SPGS PTCLDY    32  27  81 CALM      30.24S
WALDEN         PTCLDY    30  25  80 E3        30.24R
$$

COZ006>008-011-281300-
...WEST CENTRAL VALLEYS...

CITY           SKY/WX    TMP DP  RH WIND       PRES   REMARKS
GRAND JUNCTION CLEAR     43  26  51 E10       30.17R
MONTROSE       CLEAR     38  25  59 SE9       30.24S
EAGLE          CLEAR     30  27  86 CALM      30.30R
RIFLE          CLEAR     34  25  69 SW3       30.23R
DELTA          CLEAR     42  26  52 NE5       30.23R
NUCLA          CLEAR     37  25  60 E3        30.28R
$$

COZ017>023-064>068-281300-
...SOUTHWEST COLORADO...

CITY           SKY/WX    TMP DP  RH WIND       PRES   REMARKS
DURANGO        CLEAR     30  22  72 E5        30.26S WCI  25
CORTEZ         CLEAR     29  21  72 E3        30.25R
PAGOSA SPRINGS CLEAR     33  22  65 CALM      30.31R
TELLURIDE      CLEAR     36  22  58 SE7       30.38S
WOLF CREEK PAS CLEAR     30  14  51 SW3       30.49S
$$

COZ009-010-012-014-032>034-037-058>063-281300-
...CENTRAL COLORADO...

CITY           SKY/WX    TMP DP  RH WIND       PRES   REMARKS
ASPEN          CLEAR     31  23  72 SW7       30.29R WCI  24
BUENA VISTA    PTCLDY    31  22  71 NW5       30.28S WCI  26
COPPER MTN     PTCLDY    32  19  59 SW7G18    30.42S WCI  26
BERTHOUD PASS  FAIR      27  19  74 NW31G39   30.39F WCI  10
COTTONWOOD PAS PTCLDY    41  18  38 NW12G17   30.33S
GUNNISON       PTCLDY    27  19  74 CALM      30.37R
KREMMLING      CLEAR     28  23  80 CALM      30.30R
LEADVILLE      PTCLDY    27  17  66 CALM      30.34R
SALIDA         PTCLDY    35  24  64 NW3       30.35S
SUNLIGHT       CLEAR     34  23  64 CALM      30.41F
WILKERSON PASS PTCLDY    32  19  59 NW10G20   30.40R WCI  24
$$

COZ069>075-281300-
...SAN LUIS VALLEY/SANGRE DE CRISTO MOUNTAINS...

CITY           SKY/WX    TMP DP  RH WIND       PRES   REMARKS
ALAMOSA        PTCLDY    28  18  66 SE6       30.28S WCI  22
LA VETA PASS   PTCLDY    36  18  48 SW6       30.35R
SAGUACHE       CLEAR     34  21  60 NW14      30.30R WCI  24
$$

COZ035-036-038>040-281300-
...NORTHERN COLORADO FRONT RANGE...

CITY           SKY/WX    TMP DP  RH WIND       PRES   REMARKS
DENVER INTL AP CLEAR     47  29  49 SW12      30.08R
DMNS CITY PARK   N/A     48  27  43 SW8       30.08S
AURORA         CLEAR     48  27  43 SW8       30.10R
FRONT RANGE AP CLEAR     52  30  43 SW10      30.09S
ERIE MUNI ARPT CLEAR     39  31  71 CALM      30.07S
BOULDER MUN AP CLEAR     50  27  40 W5        30.07R
CENTENNIAL     CLEAR     51  26  37 W12       30.11R
BROOMFIELD     CLEAR     54  27  35 W9        30.09S
FORT COLLINS   CLEAR     46  28  49 CALM      30.07S
LONGMONT       CLEAR     43  31  61 SW6       30.08S
$$

COZ041-046-047-076>085-087-088-281300-
...PIKES PEAK/PALMER DIVIDE AND SOUTHERN FOOTHILLS...

CITY           SKY/WX    TMP DP  RH WIND       PRES   REMARKS
COLO. SPRINGS  CLEAR     42  25  50 N9        30.15R
A. F. ACADEMY  CLEAR     40  24  51 NE6       30.16R
ELLICOTT       CLEAR    N/A N/A N/A N6        30.13R
FALCON         CLEAR     46  22  40 NW10      30.18R
FORT CARSON    CLEAR     41  27  55 N6        30.12R
LIMON          CLEAR     38  29  70 NW7       30.09R
MONUMENT HILL  CLEAR     36  27  69 W7        30.16S
TRINIDAD       CLEAR     43  27  53 SW17      30.15R
$$

COZ042>045-048>051-090-091-281300-
...NORTHEAST COLORADO...

CITY           SKY/WX    TMP DP  RH WIND       PRES   REMARKS
GREELEY ARPT   CLEAR     34  21  60 CALM      30.05R
AKRON          CLEAR     44  31  60 W13       30.03R
BURLINGTON     CLEAR     38  31  76 W10       30.03R
WRAY           CLEAR     36  32  83 W7        30.01R
STERLING       CLEAR     32  28  86 S6        30.01S WCI  26
HOLYOKE        CLEAR     37  30  75 W10       30.00R
FORT MORGAN    CLEAR     42  27  55 W8        30.05R
$$

COZ086-089-092>099-281300-
...SOUTHEAST COLORADO...

CITY           SKY/WX    TMP DP  RH WIND       PRES   REMARKS
PUEBLO         CLEAR     41  29  62 NW5       30.09R
LA JUNTA       CLEAR     45  33  63 W13       30.05R
LAMAR          CLEAR     37  32  82 SW5       30.03R
SPRINGFIELD      N/A     46  33  60 W12       30.06R
$$



USA.gov is the U.S. government's official web portal to all federal, state and local government web resources and services.